This demonstration page uses our WeatherBlox Daily Observations layout. Learn more.

Left ArrowRight Arrow

38.83388, -104.82136

Hourly Observations for May 31, 2022

Temp ( °F °C ) Dew Point ( °F °C ) Humidity (%) Winds ( mph kmh ) Pressure ( in mb ) Visibility ( mi km ) Precip ( " mm )
12:58 am 00:58 Partly Cloudy 55 12.8 12 -11 18 18 ESE 6 9 29.46 998 10 16 0.00 0.00
1:58 am 01:58 Cloudy 50 9.8 18 -7.9 28 28 S 13 20 29.51 999 10 16 0.00 0.00
2:58 am 02:58 Cloudy 49 9.5 20 -6.8 31 31 SSW 9 15 29.49 999 10 16 0.00 0.00
3:58 am 03:58 undefined 48 8.7 21 -6.3 34 34 S 13 20 29.52 1000 10 16 0.00 0.00
4:58 am 04:58 undefined 47 8.1 22 -5.4 38 38 S 5 7 29.52 1000 10 16 0.00 0.00
5:58 am 05:58 Sunny 46 7.8 22 -5.3 39 39 Calm 29.54 1001 10 16 0.00 0.00
6:58 am 06:58 Sunny 46 7.8 26 -3.4 45 45 Calm 29.59 1002 10 16 0.00 0.00
7:58 am 07:58 Sunny N/A N/A N/A undefined N/A N/A 10 16 0.00 0.00
8:58 am 08:58 Sunny 54 12.1 29 -1.4 39 39 ESE 13 20 29.70 1006 10 16 0.00 0.00
9:58 am 09:58 undefined 56 13.2 31 -0.8 38 38 SE 17 28 29.70 1006 N/A 0.00 0.00
10:08 am 10:08 undefined 54 12 28 -2 38 38 S 16 26 29.87 1011 10 16 0.00 0.00
10:20 am 10:20 Sunny 55 13 30 -1 38 38 SE 16 26 29.84 1011 10 16 0.00 0.00
10:54 am 10:54 undefined 55 13 30 -1 38 38 ESE 15 24 29.70 1006 10 16 0.00 0.00
10:58 am 10:58 Mostly Sunny 56 13.5 32 -0.2 39 39 SE 16 26 29.70 1006 10 16 0.00 0.00
11:58 am 11:58 Sunny 57 14.1 30 -1.1 35 35 S 15 24 29.72 1006 10 16 0.00 0.00
12:58 pm 12:58 Sunny 60 15.3 32 -0.1 35 35 SSE 14 22 29.73 1007 10 16 0.00 0.00
1:58 pm 13:58 Mostly Sunny 60 15.4 32 0 35 35 SE 14 22 29.75 1008 10 16 0.00 0.00
2:58 pm 14:58 Mostly Cloudy 58 14.4 31 -0.5 36 36 SE 15 24 29.71 1006 10 16 0.00 0.00
3:58 pm 15:58 Cloudy 58 14.5 31 -0.4 36 36 SSE 10 17 29.83 1010 10 16 0.00 0.00
4:58 pm 16:58 Cloudy 59 14.8 32 -0.1 36 36 SSE 8 13 29.76 1008 10 16 0.00 0.00
5:27 pm 17:27 Cloudy 55 13 36 2 47 47 NNW 13 20 29.76 1008 10 16 0.00 0.00
5:58 pm 17:58 Cloudy 50 9.8 38 3.1 63 63 N 17 28 29.72 1006 10 16 0.00 0.00
6:58 pm 18:58 undefined 49 9.3 38 3.3 66 66 NNW 17 28 29.77 1008 10 16 0.00 0.00
7:58 pm 19:58 Cloudy 47 8.3 38 3.4 72 72 NNW 16 26 29.76 1008 10 16 0.00 0.00
8:58 pm 20:58 Cloudy 46 7.8 37 2.7 70 70 NNW 21 33 29.76 1008 10 16 0.00 0.00
9:44 pm 21:44 Mostly Clear with Light Rain 45 7 37 3 76 76 NNW 17 28 30.00 1016 10 16 0.00 0.00
9:58 pm 21:58 Mostly Clear with Light Rain 43 6.3 38 3.1 80 80 NNW 17 28 29.74 1007 10 16 0.00 0.00
10:21 pm 22:21 undefined N/A N/A N/A NNW 16 26 N/A 10 16 0.00 0.00
10:22 pm 22:22 Mostly Clear with Light Rain N/A N/A N/A NNW 17 28 N/A 10 16 0.00 0.00
11:13 pm 23:13 undefined N/A N/A N/A undefined N/A N/A N/A 0.00 0.00
11:16 pm 23:16 Mostly Clear with Light Rain N/A N/A N/A N 12 19 N/A N/A 0.00 0.00
11:23 pm 23:23 Mostly Clear with Light Rain 41 5 41 5 100 100 NW 14 22 29.74 1007 10 16 0.00 0.00
11:58 pm 23:58 Cloudy with Light Rain 40 4.6 40 4.6 100 100 NW 14 22 29.74 1007 8 13 0.00 0.00

Powered by AerisWeather